Tracking 19280 objects as of 15-Nov-2018
HD Live streaming from Space Station
objects crossing your sky now

PALAPA B4

Track PALAPA B4 now!
PALAPA B4 is classified as:


NORAD ID: 21964
Int'l Code: 1992-027A
Perigee: 35,862.7 km
Apogee: 35,913.3 km
Inclination: 10.5 °
Period: 1,440.9 minutes
Semi major axis: 42259 km
RCS: 12.5892 m2 (large)
Launch date: May 14, 1992
Source: Indonesia (INDO)
Launch site: AIR FORCE EASTERN TEST RANGE (AFETR)

Palapa B-4 was an Indonesian communications spacecraft launched by a Delta rocket.
aabbcc
Your satellite tracking list
Your tracking list is empty




NASA's NSSDC Master Catalog

Two Line Element Set (TLE):
1 21964U 92027A   18317.67693170 -.00000319  00000-0  00000+0 0  9994
2 21964  10.4692  36.2123 0005987 276.1725  93.9822  0.99936398 96804
Source of the keplerian elements: AFSPC